�������l�o���
Date,Time,MP-1(��Sv/h),MP-2(��Sv/h),MP-3(��Sv/h),MP-4(��Sv/h),MP-5(��Sv/h),MP-6(��Sv/h),MP-7(��Sv/h),MP-8(��Sv/h),����,����(m/s),���J
2023/10/03,00:00,0.521,0.795,0.490,0.989,0.710,0.320,0.571,0.532,��,7.7,��
2023/10/03,00:10,0.521,0.795,0.490,0.990,0.712,0.320,0.568,0.532,��,6.4,��
2023/10/03,00:20,0.523,0.794,0.490,0.989,0.711,0.320,0.571,0.531,��,7.0,��
2023/10/03,00:30,0.521,0.795,0.488,0.989,0.711,0.320,0.570,0.531,���k��,6.9,��
2023/10/03,00:40,0.522,0.795,0.490,0.991,0.711,0.320,0.570,0.531,���k��,6.5,��
2023/10/03,00:50,0.522,0.793,0.487,0.990,0.710,0.319,0.570,0.533,��,6.9,��
2023/10/03,01:00,0.521,0.795,0.489,0.990,0.711,0.319,0.570,0.531,��,6.4,��
2023/10/03,01:10,0.521,0.796,0.489,0.991,0.711,0.320,0.570,0.532,��,6.2,��
2023/10/03,01:20,0.522,0.796,0.489,0.991,0.711,0.321,0.568,0.531,��,5.5,��
2023/10/03,01:30,0.523,0.796,0.488,0.991,0.709,0.320,0.570,0.532,���쐼,5.9,��
2023/10/03,01:40,0.520,0.797,0.490,0.991,0.711,0.319,0.569,0.534,��,6.7,��
2023/10/03,01:50,0.521,0.795,0.488,0.990,0.711,0.320,0.570,0.533,��,6.7,��
2023/10/03,02:00,0.521,0.792,0.487,0.990,0.711,0.321,0.572,0.532,��,5.7,��
2023/10/03,02:10,0.521,0.795,0.488,0.989,0.712,0.319,0.570,0.531,��,6.0,��
2023/10/03,02:20,0.520,0.795,0.488,0.991,0.710,0.320,0.570,0.532,��,6.2,��
2023/10/03,02:30,0.521,0.792,0.491,0.988,0.710,0.319,0.571,0.531,��,6.8,��
2023/10/03,02:40,0.521,0.795,0.488,0.989,0.710,0.319,0.570,0.531,��,6.1,��
2023/10/03,02:50,0.520,0.794,0.489,0.992,0.711,0.319,0.571,0.531,��,5.8,��
2023/10/03,03:00,0.522,0.793,0.488,0.991,0.710,0.320,0.571,0.532,��,5.9,��
2023/10/03,03:10,0.521,0.795,0.489,0.989,0.710,0.320,0.572,0.530,��,6.9,��
2023/10/03,03:20,0.520,0.794,0.487,0.991,0.711,0.319,0.572,0.532,��,8.1,��
2023/10/03,03:30,0.521,0.792,0.490,0.989,0.711,0.319,0.569,0.531,��,7.3,��
2023/10/03,03:40,0.520,0.795,0.490,0.990,0.712,0.319,0.571,0.531,��,6.2,��
2023/10/03,03:50,0.522,0.795,0.488,0.991,0.709,0.320,0.571,0.532,���쐼,7.0,��
2023/10/03,04:00,0.521,0.794,0.489,0.990,0.711,0.319,0.572,0.532,���쐼,5.4,��
2023/10/03,04:10,0.521,0.793,0.488,0.991,0.712,0.319,0.572,0.531,���쐼,3.9,��
2023/10/03,04:20,0.520,0.794,0.489,0.989,0.710,0.320,0.572,0.532,���k��,2.0,��
2023/10/03,04:30,0.521,0.793,0.489,0.990,0.710,0.318,0.571,0.531,��쐼,1.1,��
2023/10/03,04:40,0.522,0.793,0.489,0.989,0.709,0.319,0.573,0.530,�쐼,1.2,��
2023/10/03,04:50,0.522,0.793,0.489,0.990,0.712,0.318,0.573,0.532,��쐼,1.2,��
2023/10/03,05:00,0.521,0.795,0.490,0.989,0.710,0.320,0.572,0.531,-,CALM,��
2023/10/03,05:10,0.520,0.796,0.490,0.990,0.710,0.318,0.571,0.530,�k�k��,1.9,��
2023/10/03,05:20,0.521,0.792,0.488,0.989,0.713,0.319,0.571,0.531,�k�k��,3.4,��
2023/10/03,05:30,0.520,0.796,0.489,0.990,0.712,0.320,0.573,0.530,�k��,3.7,��
2023/10/03,05:40,0.522,0.793,0.488,0.990,0.710,0.318,0.572,0.531,�k��,4.6,��
2023/10/03,05:50,0.522,0.795,0.489,0.990,0.712,0.319,0.572,0.531,�k�k��,3.9,��
2023/10/03,06:00,0.521,0.794,0.491,0.990,0.711,0.320,0.571,0.531,�k��,4.0,��
2023/10/03,06:10,0.521,0.794,0.488,0.989,0.712,0.320,0.572,0.530,�k��,3.9,��
2023/10/03,06:20,0.521,0.794,0.490,0.991,0.708,0.319,0.570,0.530,�k��,4.2,��
2023/10/03,06:30,0.519,0.792,0.487,0.991,0.710,0.319,0.572,0.530,�k��,3.8,��
2023/10/03,06:40,0.521,0.794,0.490,0.989,0.711,0.319,0.571,0.530,�k��,5.2,��
2023/10/03,06:50,0.521,0.795,0.487,0.991,0.710,0.320,0.572,0.530,���k��,5.0,��
2023/10/03,07:00,0.521,0.795,0.489,0.989,0.708,0.319,0.571,0.531,���k��,6.4,��
2023/10/03,07:10,0.520,0.793,0.489,0.989,0.712,0.318,0.571,0.530,�k��,6.4,��
2023/10/03,07:20,0.522,0.794,0.488,0.990,0.711,0.319,0.572,0.530,���k��,5.5,��
2023/10/03,07:30,0.521,0.795,0.488,0.988,0.710,0.320,0.571,0.531,���k��,4.9,��
2023/10/03,07:40,0.520,0.793,0.489,0.991,0.711,0.319,0.572,0.531,���k��,4.4,��
2023/10/03,07:50,0.521,0.793,0.488,0.990,0.708,0.320,0.572,0.529,�k��,3.8,��
2023/10/03,08:00,0.521,0.792,0.488,0.990,0.707,0.320,0.570,0.532,�k��,3.4,��
2023/10/03,08:10,0.519,0.789,0.489,0.991,0.710,0.319,0.570,0.532,�k��,5.1,��
2023/10/03,08:20,0.519,0.789,0.489,0.992,0.710,0.319,0.570,0.531,�k�k��,5.1,��
2023/10/03,08:30,0.520,0.790,0.489,0.990,0.712,0.319,0.570,0.530,�k��,4.5,��
2023/10/03,08:40,0.520,0.793,0.490,0.991,0.710,0.318,0.571,0.531,�k�k��,3.7,��
2023/10/03,08:50,0.518,0.793,0.490,0.990,0.707,0.319,0.570,0.531,�k��,3.8,��
2023/10/03,09:00,0.519,0.790,0.490,0.991,0.709,0.317,0.572,0.530,�k��,4.9,��
2023/10/03,09:10,0.520,0.791,0.490,0.991,0.708,0.317,0.571,0.529,�k��,5.2,��
2023/10/03,09:20,0.521,0.792,0.490,0.991,0.709,0.318,0.570,0.530,�k��,5.8,��
2023/10/03,09:30,0.520,0.793,0.486,0.991,0.708,0.318,0.570,0.529,�k��,5.1,��
2023/10/03,09:40,0.521,0.792,0.489,0.993,0.708,0.318,0.572,0.530,�k�k��,4.5,��
2023/10/03,09:50,0.522,0.793,0.489,0.992,0.711,0.317,0.569,0.528,�k�k��,5.1,��
2023/10/03,10:00,0.522,0.791,0.491,0.992,0.709,0.318,0.569,0.531,�k��,4.7,��
2023/10/03,10:10,0.522,0.794,0.488,0.991,0.710,0.318,0.569,0.529,�k�k��,4.5,��
2023/10/03,10:20,0.523,0.795,0.488,0.993,0.713,0.319,0.569,0.530,�k��,5.9,��
2023/10/03,10:30,0.522,0.794,0.487,0.994,0.711,0.320,0.567,0.531,�k�k��,3.3,��
2023/10/03,10:40,0.521,0.792,0.489,0.996,0.709,0.318,0.568,0.530,�k�k��,4.0,��
2023/10/03,10:50,0.523,0.794,0.489,0.992,0.710,0.318,0.568,0.530,�k��,3.5,��
2023/10/03,11:00,0.524,0.794,0.489,0.993,0.714,0.319,0.569,0.531,�k�k��,2.0,��
2023/10/03,11:10,0.523,0.796,0.490,0.994,0.712,0.316,0.569,0.530,��,2.6,��
2023/10/03,11:20,0.523,0.795,0.489,0.994,0.712,0.318,0.567,0.530,�k��,3.0,��
2023/10/03,11:30,0.523,0.795,0.489,0.994,0.713,0.319,0.568,0.530,�k��,3.0,��
2023/10/03,11:40,0.524,0.795,0.490,0.993,0.714,0.318,0.569,0.531,���k��,3.4,��
2023/10/03,11:50,0.522,0.796,0.491,0.993,0.714,0.321,0.571,0.530,���쐼,2.6,��
2023/10/03,12:00,0.523,0.797,0.490,0.996,0.714,0.319,0.570,0.531,�쐼,3.8,��
2023/10/03,12:10,0.524,0.796,0.492,0.995,0.713,0.318,0.571,0.530,�쐼,3.1,��
2023/10/03,12:20,0.523,0.799,0.491,0.995,0.715,0.319,0.570,0.531,�쐼,1.9,��
2023/10/03,12:30,0.523,0.797,0.491,0.995,0.714,0.319,0.569,0.531,���쐼,1.2,��
2023/10/03,12:40,0.525,0.800,0.491,0.995,0.716,0.319,0.571,0.530,��쓌,5.1,��
2023/10/03,12:50,0.524,0.802,0.489,0.996,0.716,0.318,0.569,0.532,��쓌,4.4,��
2023/10/03,13:00,0.523,0.800,0.492,0.995,0.715,0.319,0.570,0.531,��쓌,5.2,��
2023/10/03,13:10,0.522,0.798,0.491,0.995,0.713,0.320,0.572,0.529,��쓌,5.0,��
2023/10/03,13:20,0.525,0.799,0.490,0.994,0.716,0.319,0.570,0.531,��쓌,5.9,��
2023/10/03,13:30,0.523,0.801,0.490,0.995,0.716,0.318,0.570,0.530,��쓌,5.8,��
2023/10/03,13:40,0.524,0.797,0.490,0.995,0.716,0.318,0.570,0.532,��쓌,5.7,��
2023/10/03,13:50,0.523,0.796,0.491,0.996,0.716,0.318,0.570,0.530,��쓌,5.9,��
2023/10/03,14:00,0.524,0.796,0.491,0.995,0.717,0.318,0.570,0.530,��쓌,5.6,��
2023/10/03,14:10,0.522,0.797,0.491,0.995,0.717,0.319,0.569,0.531,��쓌,6.1,��
2023/10/03,14:20,0.523,0.798,0.491,0.996,0.716,0.320,0.570,0.530,��쓌,6.3,��
2023/10/03,14:30,0.524,0.800,0.492,0.995,0.717,0.319,0.569,0.530,��쓌,6.8,��
2023/10/03,14:40,0.525,0.797,0.492,0.996,0.716,0.319,0.571,0.531,��쓌,6.4,��
2023/10/03,14:50,0.524,0.800,0.491,0.996,0.715,0.319,0.570,0.529,��쓌,5.7,��
2023/10/03,15:00,0.524,0.799,0.491,0.996,0.716,0.318,0.570,0.531,��쓌,5.3,��
2023/10/03,15:10,0.525,0.800,0.491,0.997,0.716,0.319,0.571,0.531,��쓌,5.9,��
2023/10/03,15:20,0.525,0.799,0.492,0.998,0.717,0.319,0.570,0.531,��쓌,5.3,��
2023/10/03,15:30,0.524,0.800,0.491,0.997,0.717,0.319,0.570,0.531,��쓌,4.7,��
2023/10/03,15:40,0.524,0.800,0.491,0.996,0.717,0.319,0.570,0.532,��쓌,5.5,��
2023/10/03,15:50,0.524,0.801,0.492,0.997,0.716,0.319,0.570,0.529,��쓌,4.4,��
2023/10/03,16:00,0.525,0.800,0.492,0.998,0.716,0.319,0.569,0.530,��쓌,5.1,��
2023/10/03,16:10,0.523,0.799,0.491,0.996,0.716,0.320,0.571,0.531,��,5.8,��
2023/10/03,16:20,0.525,0.802,0.491,0.996,0.716,0.321,0.570,0.527,��,5.7,��
2023/10/03,16:30,0.523,0.800,0.490,0.998,0.718,0.322,0.571,0.530,��,5.2,��
2023/10/03,16:40,0.524,0.801,0.490,0.996,0.717,0.322,0.571,0.530,��,5.5,��
2023/10/03,16:50,0.524,0.801,0.490,0.998,0.718,0.321,0.570,0.530,��,5.3,��
2023/10/03,17:00,0.525,0.802,0.492,0.996,0.717,0.320,0.571,0.531,��,5.7,��
2023/10/03,17:10,0.523,0.804,0.490,0.997,0.717,0.319,0.572,0.531,��,4.9,��
2023/10/03,17:20,0.523,0.804,0.493,0.997,0.719,0.321,0.570,0.531,��쐼,4.5,��
2023/10/03,17:30,0.524,0.803,0.494,0.997,0.718,0.320,0.570,0.532,��쐼,3.9,��
2023/10/03,17:40,0.525,0.803,0.494,0.997,0.721,0.320,0.572,0.532,��쐼,5.2,��
2023/10/03,17:50,0.526,0.804,0.494,0.996,0.720,0.321,0.572,0.531,��쐼,5.5,��
2023/10/03,18:00,0.525,0.805,0.494,0.999,0.718,0.320,0.572,0.533,��쐼,5.1,��
2023/10/03,18:10,0.525,0.804,0.493,0.997,0.719,0.320,0.574,0.533,��쐼,5.4,��
2023/10/03,18:20,0.523,0.805,0.494,0.998,0.719,0.321,0.572,0.532,��쐼,5.2,��
2023/10/03,18:30,0.526,0.805,0.495,0.998,0.719,0.320,0.572,0.531,��쐼,5.1,��
2023/10/03,18:40,0.525,0.803,0.493,0.997,0.720,0.320,0.572,0.531,��쐼,4.6,��
2023/10/03,18:50,0.526,0.804,0.493,0.999,0.718,0.320,0.572,0.531,��쐼,3.4,��
2023/10/03,19:00,0.526,0.805,0.494,0.999,0.719,0.322,0.574,0.531,��쐼,3.0,��
2023/10/03,19:10,0.527,0.803,0.493,0.999,0.721,0.320,0.573,0.532,��쐼,3.1,��
2023/10/03,19:20,0.527,0.803,0.492,0.998,0.719,0.319,0.572,0.532,�쐼,3.3,��
2023/10/03,19:30,0.525,0.806,0.494,0.995,0.720,0.319,0.573,0.533,�쐼,2.8,��
2023/10/03,19:40,0.526,0.803,0.493,0.999,0.720,0.321,0.573,0.531,�쐼,2.6,��
2023/10/03,19:50,0.527,0.804,0.494,0.997,0.719,0.321,0.572,0.532,��쐼,2.6,��
2023/10/03,20:00,0.527,0.803,0.492,0.999,0.719,0.322,0.572,0.531,��쐼,3.9,��
2023/10/03,20:10,0.525,0.802,0.494,0.997,0.719,0.322,0.572,0.531,�쐼,4.0,��
2023/10/03,20:20,0.527,0.803,0.494,0.998,0.719,0.322,0.573,0.531,�쐼,3.1,��
2023/10/03,20:30,0.526,0.805,0.491,0.999,0.720,0.321,0.573,0.532,�쐼,3.4,��
2023/10/03,20:40,0.526,0.803,0.493,0.999,0.718,0.321,0.574,0.532,���쐼,3.3,��
2023/10/03,20:50,0.528,0.803,0.493,0.998,0.718,0.322,0.572,0.531,���쐼,2.9,��
2023/10/03,21:00,0.526,0.804,0.493,0.998,0.720,0.322,0.573,0.532,���k��,2.2,��
2023/10/03,21:10,0.528,0.803,0.493,0.997,0.720,0.319,0.572,0.532,���k��,2.3,��
2023/10/03,21:20,0.526,0.802,0.493,0.999,0.720,0.321,0.573,0.531,�k��,2.2,��
2023/10/03,21:30,0.527,0.804,0.493,0.998,0.720,0.321,0.572,0.533,�k��,2.2,��
2023/10/03,21:40,0.527,0.804,0.493,0.999,0.719,0.321,0.572,0.531,�k��,2.0,��
2023/10/03,21:50,0.525,0.805,0.493,0.998,0.720,0.321,0.571,0.533,��,2.2,��
2023/10/03,22:00,0.527,0.804,0.494,0.996,0.718,0.319,0.573,0.532,���쐼,1.9,��
2023/10/03,22:10,0.526,0.805,0.494,0.998,0.720,0.321,0.575,0.533,�쐼,2.0,��
2023/10/03,22:20,0.526,0.803,0.494,1.000,0.719,0.321,0.573,0.534,�쐼,3.5,��
2023/10/03,22:30,0.527,0.805,0.493,0.998,0.721,0.321,0.574,0.533,�쐼,3.2,��
2023/10/03,22:40,0.526,0.802,0.492,0.998,0.720,0.321,0.574,0.532,�쐼,2.3,��
2023/10/03,22:50,0.526,0.803,0.493,0.998,0.720,0.320,0.573,0.532,���쐼,2.3,��
2023/10/03,23:00,0.528,0.803,0.493,0.997,0.720,0.321,0.574,0.532,�쐼,3.0,��
2023/10/03,23:10,0.527,0.804,0.494,0.998,0.721,0.320,0.573,0.534,�쐼,4.2,��
2023/10/03,23:20,0.527,0.803,0.494,0.997,0.718,0.322,0.574,0.531,�쐼,3.7,��
2023/10/03,23:30,0.526,0.804,0.493,1.000,0.721,0.320,0.574,0.533,�쐼,3.1,��
2023/10/03,23:40,0.526,0.804,0.493,0.998,0.719,0.321,0.574,0.533,��,2.6,��
2023/10/03,23:50,0.526,0.802,0.493,0.998,0.720,0.322,0.573,0.532,���쐼,1.5,��
